Preview of NWS' New Version of Forecast
This preview is not operational and should not be used for support decisions.

Regional Weather Roundup (RWR)

Issued by National Weather Service (NWS)

                            
000
ASUS46 KSEW 250310
RWRWA 

WASHINGTON REGIONAL WEATHER ROUNDUP
NATIONAL WEATHER SERVICE SEATTLE WA
800 PM PDT MON JUN 24 2019

NOTE:"FAIR" INDICATES FEW OR NO CLOUDS BELOW 12,000 FEET WITH NO 
SIGNIFICANT WEATHER AND/OR OBSTRUCTIONS TO VISIBILITY.

WAZ507-509-555>559-250400-
SEATTLE, TACOMA, EVERETT, AND VICINITY
  
CITY           SKY/WX    TMP DP  RH WIND       PRES   REMARKS
EVERETT        PTCLDY    61  49  64 N5        29.96F                  
BOEING FIELD   PTCLDY    67  41  38 NW6       29.94F                  
RENTON         CLEAR     68  45  43 N6        29.93F                  
SEATAC AIRPORT PTCLDY    67  44  43 NW8       29.94F                  
JBLM-MCCHORD   CLEAR     68  47  46 N5        29.94F                  
PUYALLUP       FAIR      66  45  45 CALM      29.94F                  
BREMERTON      MOCLDY    63  48  58 NE5       29.95F                  
JBLM-FT LEWIS  CLEAR     68  47  46 W5        29.93F                  
TACOMA NARROWS CLEAR     66  43  43 VRB3      29.94F                  
$$
 
WAZ001-503-506-510-514-515-250400-
NORTH INTERIOR
  
CITY           SKY/WX    TMP DP  RH WIND       PRES   REMARKS
BELLINGHAM     MOSUNNY   63  48  58 S6        29.95F                  
FRIDAY HARBOR  MOSUNNY   58  46  64 SW3       29.96F                  
EASTSOUND      MOSUNNY   64  48  55 S8        29.93F                  
PORT ANGELES   MOSUNNY   56  44  64 W8        29.98F                  
EDIZ HOOK      FAIR      56  46  69 W18       29.97F                  
PORT TOWNSEND  FAIR      59  46  63 NW5G12    29.96S                  
NAS WHIDBEY    MOCLDY    58  49  72 W3        30.00F                  
ARLINGTON      PTCLDY    63  49  60 NW8       29.95F                  
BURLINGTON     CLEAR     66  50  55 CALM      29.96S                  
$$
 
WAZ020-022-039-040-504-511-512-250400-
SOUTHWEST INTERIOR
  
CITY           SKY/WX    TMP DP  RH WIND       PRES   REMARKS
SHELTON        CLOUDY    67  46  47 W10       29.91F                  
OLYMPIA        CLEAR     69  40  34 N3        29.93F                  
CHEHALIS       FAIR      66  48  52 CALM      29.93F                  
KELSO          MOCLDY    68  49  50 VRB5      29.93F                  
VANCOUVER      PTCLDY    68  43  40 VRB3      29.92F                  
SCAPPOOSE, OR  MOCLDY    68  45  43 N8        29.91F                  
PORTLAND, OR   MOCLDY    69  44  40 N6        29.92F                  
$$
 
WAZ021-516-517-250400-
WASHINGTON COAST
  
CITY           SKY/WX    TMP DP  RH WIND       PRES   REMARKS
FORKS          MOSUNNY   57  46  66 NW3       29.97F                  
HOQUIAM        SUNNY     60  47  61 NW8       29.96F                  
ASTORIA, OR    CLEAR     61  49  64 NW12      29.95F                  
$$
 
WAZ019-023-024-040-567>569-250400-
CASCADE MOUNTAINS AND COLUMBIA GORGE
  
CITY           SKY/WX    TMP DP  RH WIND       PRES   REMARKS
STAMPEDE PASS  PTCLDY    48  39  71 NW6       29.97F                  
TROUTDALE, OR  PTCLDY    68  46  45 CALM      29.92F                  
HOOD RIVER, OR PTCLDY    66  36  32 W5        29.89S                  
THE DALLES, OR PTCLDY    70  34  26 W12G24    29.85R                  
$$

WAZ026-027-041>044-520-521-250400-
EAST SLOPES
  
CITY           SKY/WX    TMP DP  RH WIND       PRES   REMARKS
OMAK           CLOUDY    73  39  29 N12       29.80R                  
WENATCHEE      PTCLDY    71  37  28 NW13      29.81R                  
ELLENSBURG     PTCLDY    63  39  41 NW26G35   29.86S                  
YAKIMA         CLOUDY    74  38  27 N8        29.82R                  
SUNNYSIDE ARPT PTCLDY    71  49  45 NE7       29.79                   
YAKIMA TC      FAIR      70  37  29 NE13      29.81R                  
$$

WAZ028-034-035-250400-
COLUMBIA BASIN
  
CITY           SKY/WX    TMP DP  RH WIND       PRES   REMARKS
EPHRATA        CLEAR     72  36  26 S13       29.81S                  
MOSES LAKE     CLEAR     73  42  32 SE10      29.82S                  
PASCO          PTCLDY    77  34  21 E8        29.80F                  
RICHLAND ARPT  CLEAR     77  40  26 SE3       29.80S                  
HERMISTON, OR  PTCLDY    76  27  16 W3        29.80S                  
$$

WAZ036>038-250400-
NORTHEAST WASHINGTON
  
CITY           SKY/WX    TMP DP  RH WIND       PRES   REMARKS
SPOKANE GEIGER MOCLDY    67  35  30 S8        29.87S                  
SPOKANE FELTS  PTCLDY    70  35  27 SW10      29.86S                  
FAIRCHILD AFB  CLEAR     65  35  33 S6        29.87S                  
COEURDALENE,ID PTCLDY    65  41  41 S7        29.88S                  
DEER PARK      CLEAR     65  46  50 NE7       29.86F                  
$$

WAZ029>033-250400-
SOUTHEAST WASHINGTON
  
CITY           SKY/WX    TMP DP  RH WIND       PRES   REMARKS
PULLMAN        CLEAR     63  38  39 NW5       29.90S                  
LEWISTON, ID   CLEAR     73  31  21 NW8       29.84S                  
WALLA WALLA    PTCLDY    72  34  24 W3        29.84S                  
PENDLETON, OR  PTCLDY    69  37  30 N5        29.84S                  
$$